GW4324 Weather Reports


time (UTC)temp
F
wind
direction
speed
knots
gust
knots
rain 1hr
in
rain 24hr
in
rain mn
in
humidity
%
barometer
mb
20260506033802 57 114 1.7 3.5 0.00 0.00 0.00 87 1010.5
20260506033259 58 157 0.0 0.9 0.00 0.00 0.00 86 1010.6
20260506032756 58 44 0.0 1.7 0.00 0.00 0.00 86 1010.6
20260506032253 59 141 0.0 1.7 0.00 0.00 0.00 85 1010.5
20260506031749 59 116 2.6 2.6 0.00 0.00 0.00 85 1010.4
20260506031247 59 164 0.0 0.9 0.00 0.00 0.00 85 1010.7
20260506030745 59 119 0.0 0.9 0.00 0.00 0.00 84 1010.8
20260506030242 59 156 0.0 1.7 0.00 0.00 0.00 86 1010.8
20260506025739 58 60 0.0 0.9 0.00 0.00 0.00 88 1010.6
20260506025235 58 321 0.0 0.9 0.00 0.00 0.00 88 1010.8
20260506024732 58 141 0.0 0.9 0.00 0.00 0.00 87 1010.8
20260506024229 58 133 1.7 1.7 0.00 0.00 0.00 88 1010.8
20260506023725 58 241 0.9 1.7 0.00 0.00 0.00 87 1010.9
20260506023222 58 147 0.0 0.9 0.00 0.00 0.00 88 1010.8
20260506022719 58 75 1.7 1.7 0.00 0.00 0.00 88 1010.7
20260506022217 58 22 0.0 1.7 0.00 0.00 0.00 88 1010.8
20260506021715 58 76 0.0 0.9 0.00 0.00 0.00 86 1010.5
20260506021211 59 44 0.0 0.9 0.00 0.00 0.00 85 1010.7
20260506020708 59 122 0.0 0.9 0.00 0.00 0.00 83 1010.7
20260506020206 60 127 1.7 1.7 0.00 0.00 0.00 82 1010.7
20260506015703 61 89 0.0 1.7 0.00 0.00 0.00 80 1010.7
20260506015201 61 65 0.0 1.7 0.00 0.00 0.00 79 1010.6
20260506014658 61 142 1.7 2.6 0.00 0.00 0.00 80 1010.6
20260506014153 61 114 0.9 1.7 0.00 0.00 0.00 81 1010.7
20260506013652 61 66 0.0 0.0 0.00 0.00 0.00 80 1010.5
20260506013148 62 53 0.0 0.9 0.00 0.00 0.00 79 1010.5
20260506012644 61 55 0.0 0.0 0.00 0.00 0.00 79 1010.6
20260506012141 62 89 0.0 0.9 0.00 0.00 0.00 79 1010.5
20260506011639 63 30 0.9 1.7 0.00 0.00 0.00 77 1010.4
20260506011135 64 47 1.7 1.7 0.00 0.00 0.00 72 1010.6
20260506010634 65 140 0.0 1.7 0.00 0.00 0.00 71 1010.4
20260506010131 65 89 0.0 0.0 0.00 0.00 0.00 71 1010.4
20260506005627 66 144 0.0 0.9 0.00 0.00 0.00 70 1010.4
20260506005124 67 160 0.0 0.9 0.00 0.00 0.00 67 1010.3
20260506004620 66 186 0.9 1.7 0.00 0.00 0.00 68 1010.5
20260506004118 66 177 0.9 0.9 0.00 0.00 0.00 69 1010.0
20260506003614 66 42 0.9 0.9 0.00 0.00 0.00 69 1010.1
20260506003110 67 65 0.0 0.9 0.00 0.00 0.00 65 1010.0
20260506002606 68 55 0.0 0.0 0.00 0.00 0.00 65 1010.0
20260506002102 68 130 0.9 1.7 0.00 0.00 0.00 64 1010.0
20260506001559 68 131 0.9 0.9 0.00 0.00 0.00 64 1009.8
20260506001056 68 119 0.0 0.0 0.00 0.00 0.00 63 1009.8
20260506000553 69 60 0.0 0.9 0.00 0.00 0.00 63 1009.7
20260506000050 69 164 0.0 0.0 0.00 0.00 0.00 62 1009.8
20260505235548 70 164 0.0 0.9 0.00 0.00 0.00 61 1009.7
20260505235045 70 177 1.7 1.7 0.00 0.00 0.00 61 1009.7
20260505234542 70 173 0.9 1.7 0.00 0.00 0.00 61 1009.7
20260505234039 70 240 0.0 1.7 0.00 0.00 0.00 62 1009.6
20260505233536 70 304 0.0 1.7 0.00 0.00 0.00 62 1009.7
20260505233034 70 318 0.0 0.0 0.00 0.00 0.00 62 1009.8
20260505232531 71 230 0.0 0.0 0.00 0.00 0.00 61 1009.4
20260505232028 71 217 0.0 0.0 0.00 0.00 0.00 60 1009.7
20260505231525 71 217 1.7 2.6 0.00 0.00 0.00 58 1009.5
20260505231024 72 244 1.7 2.6 0.00 0.00 0.00 58 1009.5
20260505230521 72 209 0.0 2.6 0.00 0.00 0.00 56 1009.5
20260505230018 73 245 0.0 3.5 0.00 0.00 0.00 55 1009.2
20260505225514 73 196 2.6 4.3 0.00 0.00 0.00 54 1009.2
20260505225010 74 215 1.7 2.6 0.00 0.00 0.00 53 1009.5
20260505224508 74 187 0.9 2.6 0.00 0.00 0.00 51 1009.4
20260505224005 74 273 2.6 4.3 0.00 0.00 0.00 51 1009.4
20260505223502 74 284 0.9 3.5 0.00 0.00 0.00 51 1009.4
20260505222958 74 299 2.6 2.6 0.00 0.00 0.00 50 1009.5
20260505222454 74 83 0.9 5.2 0.00 0.00 0.00 49 1009.3
20260505221950 75 306 4.3 5.2 0.00 0.00 0.00 47 1009.4
20260505221448 75 206 3.5 3.5 0.00 0.00 0.00 46 1009.1
20260505220944 76 5 2.6 5.2 0.00 0.00 0.00 45 1009.1
20260505220441 76 301 2.6 5.2 0.00 0.00 0.00 44 1008.9
20260505215939 77 345 2.6 6.1 0.00 0.00 0.00 43 1008.9
20260505215437 77 237 1.7 2.6 0.00 0.00 0.00 43 1008.9
20260505214935 77 192 0.9 3.5 0.00 0.00 0.00 41 1008.7
20260505214432 78 189 1.7 4.3 0.00 0.00 0.00 41 1008.8
20260505213929 78 219 1.7 3.5 0.00 0.00 0.00 41 1008.6
20260505213427 78 229 0.0 2.6 0.00 0.00 0.00 41 1008.6
20260505212923 78 188 1.7 4.3 0.00 0.00 0.00 40 1008.3
20260505212420 79 207 1.7 7.0 0.00 0.00 0.00 40 1008.3
20260505211916 79 222 2.6 7.8 0.00 0.00 0.00 40 1008.2
20260505211414 79 262 3.5 8.7 0.00 0.00 0.00 38 1008.2
20260505210910 80 216 4.3 9.6 0.00 0.00 0.00 38 1008.2
20260505210408 80 214 1.7 5.2 0.00 0.00 0.00 38 1008.2
20260505205904 81 225 5.2 7.8 0.00 0.00 0.00 37 1008.1
20260505205403 82 203 3.5 7.8 0.00 0.00 0.00 35 1008.2
20260505204859 82 315 0.9 9.6 0.00 0.00 0.00 39 1008.3
20260505204357 80 230 3.5 13.9 0.00 0.00 0.00 36 1008.4
20260505203854 80 200 0.9 10.4 0.00 0.00 0.00 39 1008.5
20260505203350 79 233 3.5 8.7 0.00 0.00 0.00 37 1008.4
20260505202847 79 248 0.9 6.1 0.00 0.00 0.00 39 1008.6
20260505202343 79 204 2.6 5.2 0.00 0.00 0.00 37 1008.4
20260505201840 80 218 5.2 13.0 0.00 0.00 0.00 35 1008.3
20260505201337 80 216 5.2 10.4 0.00 0.00 0.00 36 1008.6
20260505200835 80 213 4.3 13.0 0.00 0.00 0.00 36 1008.2
20260505200332 80 217 9.6 11.3 0.00 0.00 0.00 34 1008.4
20260505195828 80 205 11.3 16.5 0.00 0.00 0.00 35 1008.5
20260505195325 80 213 9.6 13.0 0.00 0.00 0.00 35 1008.5
20260505194822 80 214 8.7 14.8 0.00 0.00 0.00 35 1008.5
20260505194319 81 219 12.2 14.8 0.00 0.00 0.00 35 1008.5
20260505193814 81 221 7.8 17.4 0.00 0.00 0.00 34 1008.3
20260505193312 81 209 6.1 11.3 0.00 0.00 0.00 36 1008.4
20260505192810 80 215 11.3 16.5 0.00 0.00 0.00 36 1008.5
20260505192310 80 207 13.9 24.3 0.00 0.00 0.00 36 1008.3
20260505191806 81 195 11.3 20.0 0.00 0.00 0.00 36 1008.4
20260505191304 82 209 11.3 22.6 0.00 0.00 0.00 35 1008.2
20260505190800 82 215 13.0 13.9 0.00 0.00 0.00 37 1008.1
20260505190255 82 225 12.2 17.4 0.00 0.00 0.00 37 1008.6
20260505185752 82 213 14.8 16.5 0.00 0.00 0.00 36 1008.3
20260505185248 83 227 19.1 25.2 0.00 0.00 0.00 34 1008.6
20260505184744 81 229 10.4 20.0 0.00 0.00 0.00 36 1008.7
20260505184242 83 204 8.7 18.2 0.00 0.00 0.00 37 1008.8
20260505183738 82 212 7.8 16.5 0.00 0.00 0.00 38 1008.8
20260505183236 82 167 7.8 14.8 0.00 0.00 0.00 39 1008.8
20260505182732 83 193 7.0 11.3 0.00 0.00 0.00 40 1008.9
20260505182229 81 202 12.2 15.6 0.00 0.00 0.00 38 1009.1
20260505181725 82 205 5.2 18.2 0.00 0.00 0.00 40 1009.4
20260505181223 80 212 7.0 14.8 0.00 0.00 0.00 41 1009.4
20260505180719 81 199 8.7 18.2 0.00 0.00 0.00 39 1009.5
20260505180216 81 207 8.7 9.6 0.00 0.00 0.00 39 1009.4
20260505175712 81 168 4.3 12.2 0.00 0.00 0.00 39 1009.6
20260505175209 80 189 12.2 13.9 0.00 0.00 0.00 39 1009.8
20260505174705 80 191 7.8 16.5 0.00 0.00 0.00 40 1009.7
20260505174202 80 207 4.3 10.4 0.00 0.00 0.00 41 1009.9
20260505173658 79 211 7.8 13.9 0.00 0.00 0.00 41 1009.8
20260505173155 79 200 10.4 13.9 0.00 0.00 0.00 42 1009.7
20260505172652 80 235 9.6 13.0 0.00 0.00 0.00 41 1009.5
20260505172149 79 202 5.2 10.4 0.00 0.00 0.00 44 1009.8
20260505171649 80 235 8.7 14.8 0.00 0.00 0.00 42 1009.8
20260505171146 80 189 4.3 14.8 0.00 0.00 0.00 42 1009.6
20260505170643 80 233 9.6 13.9 0.00 0.00 0.00 40 1009.8
20260505170140 80 216 7.0 14.8 0.00 0.00 0.00 43 1009.7
20260505165640 80 223 11.3 13.0 0.00 0.00 0.00 41 1010.0
20260505165137 80 197 9.6 19.1 0.00 0.00 0.00 42 1009.9
20260505164632 79 200 10.4 19.1 0.00 0.00 0.00 42 1010.0
20260505164130 79 204 12.2 17.4 0.00 0.00 0.00 41 1010.3
20260505163628 79 202 10.4 14.8 0.00 0.00 0.00 42 1010.2
20260505163125 78 215 8.7 13.0 0.00 0.00 0.00 44 1010.6
20260505162623 79 197 13.9 16.5 0.00 0.00 0.00 43 1010.4
20260505162120 78 200 7.8 20.0 0.00 0.00 0.00 43 1010.6
20260505161617 79 244 3.5 7.0 0.00 0.00 0.00 45 1010.6
20260505161114 78 190 6.1 17.4 0.00 0.00 0.00 43 1010.6
20260505160612 78 207 7.8 17.4 0.00 0.00 0.00 44 1010.7
20260505160109 79 182 7.8 17.4 0.00 0.00 0.00 44 1010.8
20260505153049 77 222 9.6 11.3 0.00 0.00 0.00 46 1011.3
20260505152545 76 216 7.8 16.5 0.00 0.00 0.00 48 1011.0
20260505152041 76 213 7.8 13.9 0.00 0.00 0.00 49 1011.2
20260505151536 76 204 7.8 10.4 0.00 0.00 0.00 49 1011.3
20260505151034 76 212 10.4 13.9 0.00 0.00 0.00 48 1011.2
20260505150530 75 245 4.3 15.6 0.00 0.00 0.00 50 1011.2
20260505140455 72 191 5.2 11.3 0.00 0.00 0.00 55 1011.1
20260505124909 68 163 1.7 4.3 0.00 0.00 0.00 62 1011.6
20260505124406 67 163 0.9 3.5 0.00 0.00 0.00 62 1011.8
20260505123902 66 196 3.5 7.8 0.00 0.00 0.00 63 1011.7
20260505123359 65 132 1.7 2.6 0.00 0.00 0.00 67 1011.9
20260505122854 65 177 2.6 2.6 0.00 0.00 0.00 68 1011.9
20260505122352 65 162 0.9 1.7 0.00 0.00 0.00 68 1012.0
20260505121848 65 94 0.9 2.6 0.00 0.00 0.00 67 1012.0
20260505121346 65 153 1.7 3.5 0.00 0.00 0.00 67 1011.9
20260505120842 65 154 1.7 2.6 0.00 0.00 0.00 66 1011.9
20260505120338 64 192 1.7 1.7 0.00 0.00 0.00 67 1012.0
20260505115837 63 122 1.7 5.2 0.00 0.00 0.00 68 1012.1
20260505115334 63 156 0.0 2.6 0.00 0.00 0.00 69 1011.8
20260505114832 63 164 0.9 1.7 0.00 0.00 0.00 69 1011.8
20260505114328 63 132 0.0 2.6 0.00 0.00 0.00 69 1011.7
20260505113825 62 138 1.7 2.6 0.00 0.00 0.00 70 1011.7
20260505113321 61 145 1.7 3.5 0.00 0.00 0.00 72 1011.6
20260505112817 59 168 0.0 2.6 0.00 0.00 0.00 77 1011.7
20260505112314 55 116 1.7 1.7 0.00 0.00 0.00 85 1011.6
20260505111810 55 89 0.0 1.7 0.00 0.00 0.00 83 1011.7
20260505111306 54 97 1.7 1.7 0.00 0.00 0.00 82 1011.6
20260505110802 54 23 0.0 0.9 0.00 0.00 0.00 82 1011.6
20260505110300 54 138 1.7 2.6 0.00 0.00 0.00 83 1011.4
20260505101733 60 95 1.7 2.6 0.00 0.00 0.00 70 1011.3
20260505101229 60 117 1.7 3.5 0.00 0.00 0.00 70 1011.4
20260505100726 60 172 2.6 3.5 0.00 0.00 0.00 70 1011.2
20260505100223 60 184 2.6 2.6 0.00 0.00 0.00 70 1011.0
20260505095723 61 181 3.5 5.2 0.00 0.00 0.00 69 1011.1
20260505095222 60 185 2.6 4.3 0.00 0.00 0.00 70 1011.3
20260505094717 60 158 1.7 3.5 0.00 0.00 0.00 71 1011.1
20260505094214 59 162 1.7 2.6 0.00 0.00 0.00 72 1010.8
20260505093710 59 142 1.7 2.6 0.00 0.00 0.00 72 1010.9
20260505093208 59 161 1.7 2.6 0.00 0.00 0.00 72 1010.9
20260505092704 59 161 1.7 2.6 0.00 0.00 0.00 71 1010.7
20260505092203 59 182 0.9 2.6 0.00 0.00 0.00 73 1010.7
20260505091700 57 0 0.0 1.7 0.00 0.00 0.00 75 1010.7
20260505091158 59 44 0.0 0.9 0.00 0.00 0.00 73 1010.6
20260505090655 59 89 0.9 2.6 0.00 0.00 0.00 72 1010.6
20260505090153 59 131 1.7 2.6 0.00 0.00 0.00 72 1010.5
20260505085650 59 145 1.7 1.7 0.00 0.00 0.00 72 1010.5
20260505085149 59 172 1.7 1.7 0.00 0.00 0.00 71 1010.7
20260505084646 59 146 0.9 0.9 0.00 0.00 0.00 72 1010.7
20260505084144 60 89 0.9 1.7 0.00 0.00 0.00 68 1010.7
20260505083641 61 160 0.9 1.7 0.00 0.00 0.00 67 1010.9
20260505083137 60 156 1.7 1.7 0.00 0.00 0.00 67 1010.8
20260505082633 61 143 1.7 2.6 0.00 0.00 0.00 67 1010.8
20260505082131 61 169 1.7 3.5 0.00 0.00 0.00 66 1010.6
20260505081626 61 161 2.6 2.6 0.00 0.00 0.00 65 1010.8
20260505081125 62 160 2.6 3.5 0.00 0.00 0.00 64 1010.6
20260505080621 62 154 1.7 4.3 0.00 0.00 0.00 63 1010.6
20260505080117 62 177 1.7 3.5 0.00 0.00 0.00 64 1010.6
20260505075613 62 157 1.7 2.6 0.00 0.00 0.00 64 1010.5
20260505075110 62 159 2.6 3.5 0.00 0.00 0.00 64 1010.5
20260505074607 61 132 2.6 3.5 0.00 0.00 0.00 65 1010.5
20260505074104 60 165 1.7 2.6 0.00 0.00 0.00 67 1010.2
20260505073601 59 75 0.0 1.7 0.00 0.00 0.00 69 1010.4
20260505073100 59 137 2.6 3.5 0.00 0.00 0.00 69 1010.4
20260505072555 59 106 1.7 1.7 0.00 0.00 0.00 70 1010.2
20260505072052 57 83 1.7 1.7 0.00 0.00 0.00 72 1010.2
20260505071547 57 72 0.9 0.9 0.00 0.00 0.00 73 1010.4
20260505071046 57 85 1.7 2.6 0.00 0.00 0.00 74 1010.2
20260505070543 54 332 0.9 1.7 0.00 0.00 0.00 82 1010.3
20260505070038 54 37 1.7 1.7 0.00 0.00 0.00 83 1010.3
20260505065535 54 66 0.0 1.7 0.00 0.00 0.00 82 1010.5
20260505065031 55 39 1.7 1.7 0.00 0.00 0.00 80 1010.4
20260505064528 55 55 0.9 1.7 0.00 0.00 0.00 82 1010.4
20260505064027 58 56 0.9 1.7 0.00 0.00 0.00 74 1010.4
20260505063524 60 108 1.7 2.6 0.00 0.00 0.00 67 1010.4
20260505063019 57 149 1.7 2.6 0.00 0.00 0.00 73 1010.3
20260505062516 55 50 0.0 1.7 0.00 0.00 0.00 83 1010.3
20260505062014 57 116 0.0 1.7 0.00 0.00 0.00 77 1010.4
20260505061511 57 124 1.7 2.6 0.00 0.00 0.00 72 1010.4
20260505061009 57 46 0.0 0.9 0.00 0.00 0.00 75 1010.6
20260505060506 57 137 0.0 1.7 0.00 0.00 0.00 72 1010.6
20260505060002 56 79 0.0 0.9 0.00 0.00 0.00 79 1010.7
20260505055458 57 55 0.0 0.9 0.00 0.00 0.00 76 1010.5
20260505054955 59 115 0.0 2.6 0.00 0.00 0.00 69 1010.7
20260505054452 60 165 1.7 1.7 0.00 0.00 0.00 66 1010.6
20260505053950 60 144 0.0 1.7 0.00 0.00 0.00 67 1010.6
20260505053447 59 150 1.7 1.7 0.00 0.00 0.00 66 1010.7
20260505052943 57 149 1.7 1.7 0.00 0.00 0.00 74 1010.7
20260505052441 58 38 0.0 1.7 0.00 0.00 0.00 73 1010.8
20260505051938 60 53 0.9 1.7 0.00 0.00 0.00 68 1010.6
20260505051435 58 132 1.7 1.7 0.00 0.00 0.00 73 1010.7
20260505050933 60 112 1.7 2.6 0.00 0.00 0.00 65 1010.7
20260505050431 58 146 0.9 1.7 0.00 0.00 0.00 69 1010.8
20260505041358 60 140 0.0 0.9 0.00 0.00 0.00 60 1010.5
20260505040855 61 89 0.0 0.9 0.00 0.00 0.00 60 1010.6
20260505040353 61 129 0.0 0.0 0.00 0.00 0.00 60 1010.6
20260505035850 61 124 0.0 0.9 0.00 0.00 0.00 59 1010.4
20260505035345 62 175 0.9 1.7 0.00 0.00 0.00 58 1010.4
20260505034843 62 173 1.7 1.7 0.00 0.00 0.00 58 1010.4
20260505034339 62 132 0.0 1.7 0.00 0.00 0.00 58 1010.3